Regional Weather Roundup
Issued by NWS Goodland, KS

Home | Current Version | Previous Version | Text Only | Print | Product List | Glossary On
Versions: 1 2 3 4 5 6 7 8 9 10 11 12 13 14 15 16 17 18 19 20 21 22 23 24 25 26 27 28 29 30 31 32 33 34 35 36 37 38 39 40 41 42 43 44 45 46 47 48 49 50
000
ASUS43 KGLD 240908
RWRGLD

GOODLAND FORECAST AREA HOURLY WEATHER ROUNDUP
NATIONAL WEATHER SERVICE GOODLAND KS
200 AM MST FRI FEB 24 2017

...OFFICIAL OBSERVATIONS...

CITY           SKY/WX    TMP DP  RH WIND       PRES   REMARKS
GOODLAND KS    CLOUDY    23  19  85 N21       29.81R WCI   8
HILL CITY KS   CLOUDY    29  25  85 N18G25    29.79R WCI  16
IMPERIAL NEB   LGT SNOW  23  19  85 N17       29.84R FOG     WCI   9
MCCOOK NEB     CLOUDY    25  21  85 N18       29.81R WCI  11
AKRON CO       FLURRIES  17  15  92 N9        29.84R
BURLINGTON CO  MOCLDY    21  17  84 N16       29.80R WCI   7
LIMON CO       CLOUDY    17  15  92 NW18G25   29.80R WCI   1
$$

...UNOFFICIAL OBSERVATIONS...

CITY           SKY/WX    TMP DP  RH WIND       PRES   REMARKS
LENORA KS        N/A     26  32 100 NE12        N/A  WCI  16
NORTON KS      CLOUDY    28  21  74 NW18G24   29.78R WCI  16
SHARON SPRINGS   N/A     24  19  82 N18G26      N/A  WCI  10
TRENTON NEB      N/A     23  32 100 CALM        N/A
KIT CARSON CO    N/A     20  14  77 MISG        N/A
YUMA CO        LGT SNOW  19  18  93 NW6       29.84S
$$



USA.gov is the U.S. government's official web portal to all federal, state and local government web resources and services.